Year,Month,Day,Hour,Minute,Value (Times are PST for temperature in C)
2004,02,09,00,00,6.20
2004,02,09,00,01,6.20
2004,02,09,00,02,6.30
2004,02,09,00,03,6.40
2004,02,09,00,04,6.50
2004,02,09,00,05,6.40
2004,02,09,00,06,6.50
2004,02,09,00,07,6.60
2004,02,09,00,08,6.60
2004,02,09,00,09,6.70
2004,02,09,00,10,6.70
2004,02,09,00,11,6.70
2004,02,09,00,12,6.70
2004,02,09,00,13,6.80
2004,02,09,00,14,6.80
2004,02,09,00,15,6.80
2004,02,09,00,16,6.80
2004,02,09,00,17,6.80
2004,02,09,00,18,6.70
2004,02,09,00,19,6.70
2004,02,09,00,20,6.70
2004,02,09,00,21,6.70
2004,02,09,00,22,6.70
2004,02,09,00,23,6.60
2004,02,09,00,24,6.60
2004,02,09,00,25,6.60
2004,02,09,00,26,6.60
2004,02,09,00,27,6.70
2004,02,09,00,28,6.70
2004,02,09,00,29,6.60
2004,02,09,00,30,6.70
2004,02,09,00,31,6.70
2004,02,09,00,32,6.60
2004,02,09,00,33,6.60
2004,02,09,00,34,6.50
2004,02,09,00,35,6.40
2004,02,09,00,36,6.30
2004,02,09,00,37,6.20
2004,02,09,00,38,6.20
2004,02,09,00,39,6.20
2004,02,09,00,40,6.20
2004,02,09,00,41,6.10
2004,02,09,00,42,6.10
2004,02,09,00,43,6.00
2004,02,09,00,44,6.00
2004,02,09,00,45,6.10
2004,02,09,00,46,6.10
2004,02,09,00,47,6.10
2004,02,09,00,48,6.10
2004,02,09,00,49,6.10
2004,02,09,00,50,6.10
2004,02,09,00,51,6.10
2004,02,09,00,52,6.20
2004,02,09,00,53,6.20
2004,02,09,00,54,6.20
2004,02,09,00,55,6.20
2004,02,09,00,56,6.10
2004,02,09,00,57,6.10
2004,02,09,00,58,6.20
2004,02,09,00,59,6.20
2004,02,09,01,00,6.20
2004,02,09,01,01,6.20
2004,02,09,01,02,6.10
2004,02,09,01,03,6.00
2004,02,09,01,04,6.00
2004,02,09,01,05,6.00
2004,02,09,01,06,6.00
2004,02,09,01,07,6.00
2004,02,09,01,08,6.00
2004,02,09,01,09,6.10
2004,02,09,01,10,6.20
2004,02,09,01,11,6.10
2004,02,09,01,12,6.10
2004,02,09,01,13,6.10
2004,02,09,01,14,6.10
2004,02,09,01,15,6.10
2004,02,09,01,16,6.20
2004,02,09,01,17,6.20
2004,02,09,01,18,6.20
2004,02,09,01,19,6.20
2004,02,09,01,20,6.10
2004,02,09,01,21,6.00
2004,02,09,01,22,5.90
2004,02,09,01,23,5.80
2004,02,09,01,24,5.80
2004,02,09,01,25,5.70
2004,02,09,01,26,5.70
2004,02,09,01,27,5.60
2004,02,09,01,28,5.60
2004,02,09,01,29,5.60
2004,02,09,01,30,5.60
2004,02,09,01,31,5.60
2004,02,09,01,32,5.60
2004,02,09,01,33,5.60
2004,02,09,01,34,5.70
2004,02,09,01,35,5.60
2004,02,09,01,36,5.60
2004,02,09,01,37,5.60
2004,02,09,01,38,5.60
2004,02,09,01,39,5.50
2004,02,09,01,40,5.50
2004,02,09,01,41,5.40
2004,02,09,01,42,5.40
2004,02,09,01,43,5.30
2004,02,09,01,44,5.30
2004,02,09,01,45,5.30
2004,02,09,01,46,5.20
2004,02,09,01,47,5.10
2004,02,09,01,48,5.10
2004,02,09,01,49,5.20
2004,02,09,01,50,5.20
2004,02,09,01,51,5.10
2004,02,09,01,52,5.10
2004,02,09,01,53,5.10
2004,02,09,01,54,5.00
2004,02,09,01,55,4.90
2004,02,09,01,56,4.80
2004,02,09,01,57,4.70
2004,02,09,01,58,4.70
2004,02,09,01,59,4.80
2004,02,09,02,00,4.80
2004,02,09,02,01,4.70
2004,02,09,02,02,4.70
2004,02,09,02,03,4.60
2004,02,09,02,04,4.70
2004,02,09,02,05,4.70
2004,02,09,02,06,4.80
2004,02,09,02,07,4.80
2004,02,09,02,08,4.80
2004,02,09,02,09,4.80
2004,02,09,02,10,4.80
2004,02,09,02,11,4.80
2004,02,09,02,12,4.70
2004,02,09,02,13,4.60
2004,02,09,02,14,4.60
2004,02,09,02,15,4.50
2004,02,09,02,16,4.50
2004,02,09,02,17,4.40
2004,02,09,02,18,4.40
2004,02,09,02,19,4.30
2004,02,09,02,20,4.30
2004,02,09,02,21,4.30
2004,02,09,02,22,4.30
2004,02,09,02,23,4.30
2004,02,09,02,24,4.30
2004,02,09,02,25,4.30
2004,02,09,02,26,4.30
2004,02,09,02,27,4.30
2004,02,09,02,28,4.30
2004,02,09,02,29,4.40
2004,02,09,02,30,4.40
2004,02,09,02,31,4.40
2004,02,09,02,32,4.40
2004,02,09,02,33,4.40
2004,02,09,02,34,4.40
2004,02,09,02,35,4.40
2004,02,09,02,36,4.50
2004,02,09,02,37,4.40
2004,02,09,02,38,4.20
2004,02,09,02,39,4.00
2004,02,09,02,40,4.00
2004,02,09,02,41,3.90
2004,02,09,02,42,3.90
2004,02,09,02,43,3.90
2004,02,09,02,44,3.90
2004,02,09,02,45,3.90
2004,02,09,02,46,3.80
2004,02,09,02,47,3.60
2004,02,09,02,48,3.50
2004,02,09,02,49,3.50
2004,02,09,02,50,3.40
2004,02,09,02,51,3.40
2004,02,09,02,52,3.30
2004,02,09,02,53,3.30
2004,02,09,02,54,3.30
2004,02,09,02,55,3.30
2004,02,09,02,56,3.30
2004,02,09,02,57,3.30
2004,02,09,02,58,3.30
2004,02,09,02,59,3.30
2004,02,09,03,00,3.30
2004,02,09,03,01,3.30
2004,02,09,03,02,3.30
2004,02,09,03,03,3.30
2004,02,09,03,04,3.30
2004,02,09,03,05,3.30
2004,02,09,03,06,3.30
2004,02,09,03,07,3.20
2004,02,09,03,08,3.20
2004,02,09,03,09,3.20
2004,02,09,03,10,3.20
2004,02,09,03,11,3.10
2004,02,09,03,12,3.10
2004,02,09,03,13,3.10
2004,02,09,03,14,3.10
2004,02,09,03,15,3.00
2004,02,09,03,16,2.90
2004,02,09,03,17,2.90
2004,02,09,03,18,2.90
2004,02,09,03,19,2.90
2004,02,09,03,20,2.80
2004,02,09,03,21,2.80
2004,02,09,03,22,2.70
2004,02,09,03,23,2.70
2004,02,09,03,24,2.70
2004,02,09,03,25,2.70
2004,02,09,03,26,2.70
2004,02,09,03,27,2.70
2004,02,09,03,28,2.70
2004,02,09,03,29,2.70
2004,02,09,03,30,2.70
2004,02,09,03,31,2.70
2004,02,09,03,32,2.80
2004,02,09,03,33,2.80
2004,02,09,03,34,2.80
2004,02,09,03,35,2.90
2004,02,09,03,36,2.90
2004,02,09,03,37,2.90
2004,02,09,03,38,3.00
2004,02,09,03,39,3.10
2004,02,09,03,40,3.10
2004,02,09,03,41,3.10
2004,02,09,03,42,3.10
2004,02,09,03,43,3.10
2004,02,09,03,44,3.10
2004,02,09,03,45,3.00
2004,02,09,03,46,2.90
2004,02,09,03,47,2.90
2004,02,09,03,48,2.90
2004,02,09,03,49,2.90
2004,02,09,03,50,2.80
2004,02,09,03,51,2.70
2004,02,09,03,52,2.70
2004,02,09,03,53,2.60
2004,02,09,03,54,2.60
2004,02,09,03,55,2.60
2004,02,09,03,56,2.70
2004,02,09,03,57,2.70
2004,02,09,03,58,2.70
2004,02,09,03,59,2.70
2004,02,09,04,00,2.70
2004,02,09,04,01,2.80
2004,02,09,04,02,2.80
2004,02,09,04,03,2.80
2004,02,09,04,04,2.80
2004,02,09,04,05,2.80
2004,02,09,04,06,2.80
2004,02,09,04,07,2.70
2004,02,09,04,08,2.60
2004,02,09,04,09,2.50
2004,02,09,04,10,2.40
2004,02,09,04,11,2.30
2004,02,09,04,12,2.20
2004,02,09,04,13,2.20
2004,02,09,04,14,2.10
2004,02,09,04,15,2.00
2004,02,09,04,16,1.90
2004,02,09,04,17,1.90
2004,02,09,04,18,1.80
2004,02,09,04,19,1.80
2004,02,09,04,20,1.80
2004,02,09,04,21,1.80
2004,02,09,04,22,1.80
2004,02,09,04,23,1.80
2004,02,09,04,24,1.80
2004,02,09,04,25,1.80
2004,02,09,04,26,1.90
2004,02,09,04,27,2.00
2004,02,09,04,28,2.00
2004,02,09,04,29,2.10
2004,02,09,04,30,2.10
2004,02,09,04,31,2.20
2004,02,09,04,32,2.20
2004,02,09,04,33,2.20
2004,02,09,04,34,2.30
2004,02,09,04,35,2.40
2004,02,09,04,36,2.40
2004,02,09,04,37,2.40
2004,02,09,04,38,2.30
2004,02,09,04,39,2.30
2004,02,09,04,40,2.30
2004,02,09,04,41,2.30
2004,02,09,04,42,2.30
2004,02,09,04,43,2.20
2004,02,09,04,44,2.30
2004,02,09,04,45,2.20
2004,02,09,04,46,2.20
2004,02,09,04,47,2.10
2004,02,09,04,48,2.10
2004,02,09,04,49,2.10
2004,02,09,04,50,2.10
2004,02,09,04,51,2.20
2004,02,09,04,52,2.20
2004,02,09,04,53,2.30
2004,02,09,04,54,2.50
2004,02,09,04,55,2.50
2004,02,09,04,56,2.60
2004,02,09,04,57,2.70
2004,02,09,04,58,2.80
2004,02,09,04,59,2.90
2004,02,09,05,00,2.90
2004,02,09,05,01,2.90
2004,02,09,05,02,2.90
2004,02,09,05,03,2.90
2004,02,09,05,04,2.80
2004,02,09,05,05,2.80
2004,02,09,05,06,2.70
2004,02,09,05,07,2.70
2004,02,09,05,08,2.80
2004,02,09,05,09,2.90
2004,02,09,05,10,2.90
2004,02,09,05,11,2.90
2004,02,09,05,12,2.90
2004,02,09,05,13,3.00
2004,02,09,05,14,3.10
2004,02,09,05,15,3.20
2004,02,09,05,16,3.30
2004,02,09,05,17,3.30
2004,02,09,05,18,3.40
2004,02,09,05,19,3.30
2004,02,09,05,20,3.40
2004,02,09,05,21,3.40
2004,02,09,05,22,3.30
2004,02,09,05,23,3.20
2004,02,09,05,24,3.10
2004,02,09,05,25,3.10
2004,02,09,05,26,3.10
2004,02,09,05,27,3.10
2004,02,09,05,28,3.10
2004,02,09,05,29,3.00
2004,02,09,05,30,2.90
2004,02,09,05,31,2.90
2004,02,09,05,32,2.90
2004,02,09,05,33,2.80
2004,02,09,05,34,2.80
2004,02,09,05,35,2.70
2004,02,09,05,36,2.70
2004,02,09,05,37,2.70
2004,02,09,05,38,2.70
2004,02,09,05,39,2.70
2004,02,09,05,40,2.70
2004,02,09,05,41,2.70
2004,02,09,05,42,2.70
2004,02,09,05,43,2.70
2004,02,09,05,44,2.70
2004,02,09,05,45,2.70
2004,02,09,05,46,2.70
2004,02,09,05,47,2.70
2004,02,09,05,48,2.70
2004,02,09,05,49,2.60
2004,02,09,05,50,2.60
2004,02,09,05,51,2.50
2004,02,09,05,52,2.50
2004,02,09,05,53,2.50
2004,02,09,05,54,2.70
2004,02,09,05,55,2.80
2004,02,09,05,56,3.00
2004,02,09,05,57,3.10
2004,02,09,05,58,3.20
2004,02,09,05,59,3.30
2004,02,09,06,00,3.30
2004,02,09,06,01,3.30
2004,02,09,06,02,3.30
2004,02,09,06,03,3.30
2004,02,09,06,04,3.30
2004,02,09,06,05,3.30
2004,02,09,06,06,3.30
2004,02,09,06,07,3.40
2004,02,09,06,08,3.40
2004,02,09,06,09,3.40
2004,02,09,06,10,3.40
2004,02,09,06,11,3.30
2004,02,09,06,12,3.30
2004,02,09,06,13,3.30
2004,02,09,06,14,3.30
2004,02,09,06,15,3.30
2004,02,09,06,16,3.30
2004,02,09,06,17,3.20
2004,02,09,06,18,3.20
2004,02,09,06,19,3.20
2004,02,09,06,20,3.10
2004,02,09,06,21,3.10
2004,02,09,06,22,3.10
2004,02,09,06,23,3.10
2004,02,09,06,24,3.20
2004,02,09,06,25,3.20
2004,02,09,06,26,3.30
2004,02,09,06,27,3.20
2004,02,09,06,28,3.00
2004,02,09,06,29,2.80
2004,02,09,06,30,2.60
2004,02,09,06,31,2.50
2004,02,09,06,32,2.30
2004,02,09,06,33,2.30
2004,02,09,06,34,2.20
2004,02,09,06,35,2.20
2004,02,09,06,36,2.20
2004,02,09,06,37,2.20
2004,02,09,06,38,2.30
2004,02,09,06,39,2.50
2004,02,09,06,40,2.60
2004,02,09,06,41,2.70
2004,02,09,06,42,2.70
2004,02,09,06,43,2.80
2004,02,09,06,44,2.90
2004,02,09,06,45,2.90
2004,02,09,06,46,2.90
2004,02,09,06,47,2.90
2004,02,09,06,48,2.90
2004,02,09,06,49,2.90
2004,02,09,06,50,2.90
2004,02,09,06,51,2.90
2004,02,09,06,52,2.90
2004,02,09,06,53,3.00
2004,02,09,06,54,3.10
2004,02,09,06,55,3.10
2004,02,09,06,56,3.10
2004,02,09,06,57,3.10
2004,02,09,06,58,2.90
2004,02,09,06,59,2.80
2004,02,09,07,00,2.70
2004,02,09,07,01,2.50
2004,02,09,07,02,2.50
2004,02,09,07,03,2.40
2004,02,09,07,04,2.30
2004,02,09,07,05,2.30
2004,02,09,07,06,2.20
2004,02,09,07,07,2.20
2004,02,09,07,08,2.10
2004,02,09,07,09,2.10
2004,02,09,07,10,2.10
2004,02,09,07,11,2.00
2004,02,09,07,12,2.00
2004,02,09,07,13,1.80
2004,02,09,07,14,1.80
2004,02,09,07,15,1.80
2004,02,09,07,16,1.80
2004,02,09,07,17,1.80
2004,02,09,07,18,1.80
2004,02,09,07,19,1.80
2004,02,09,07,20,1.80
2004,02,09,07,21,1.80
2004,02,09,07,22,2.00
2004,02,09,07,23,2.10
2004,02,09,07,24,2.20
2004,02,09,07,25,2.20
2004,02,09,07,26,2.30
2004,02,09,07,27,2.30
2004,02,09,07,28,2.40
2004,02,09,07,29,2.50
2004,02,09,07,30,2.60
2004,02,09,07,31,2.60
2004,02,09,07,32,2.70
2004,02,09,07,33,2.70
2004,02,09,07,34,2.60
2004,02,09,07,35,2.50
2004,02,09,07,36,2.50
2004,02,09,07,37,2.40
2004,02,09,07,38,2.40
2004,02,09,07,39,2.30
2004,02,09,07,40,2.30
2004,02,09,07,41,2.20
2004,02,09,07,42,2.30
2004,02,09,07,43,2.20
2004,02,09,07,44,2.30
2004,02,09,07,45,2.40
2004,02,09,07,46,2.40
2004,02,09,07,47,2.40
2004,02,09,07,48,2.30
2004,02,09,07,49,2.20
2004,02,09,07,50,2.10
2004,02,09,07,51,2.10
2004,02,09,07,52,2.00
2004,02,09,07,53,1.90
2004,02,09,07,54,1.80
2004,02,09,07,55,1.80
2004,02,09,07,56,1.80
2004,02,09,07,57,1.80
2004,02,09,07,58,1.70
2004,02,09,07,59,1.70
2004,02,09,08,00,1.70
2004,02,09,08,01,1.60
2004,02,09,08,02,1.60
2004,02,09,08,03,1.70
2004,02,09,08,04,1.70
2004,02,09,08,05,1.80
2004,02,09,08,06,1.90
2004,02,09,08,07,2.00
2004,02,09,08,08,2.10
2004,02,09,08,09,2.20
2004,02,09,08,10,2.30
2004,02,09,08,11,2.40
2004,02,09,08,12,2.40
2004,02,09,08,13,2.40
2004,02,09,08,14,2.50
2004,02,09,08,15,2.60
2004,02,09,08,16,2.70
2004,02,09,08,17,2.80
2004,02,09,08,18,2.90
2004,02,09,08,19,3.00
2004,02,09,08,20,3.10
2004,02,09,08,21,3.20
2004,02,09,08,22,3.30
2004,02,09,08,23,3.30
2004,02,09,08,24,3.30
2004,02,09,08,25,3.30
2004,02,09,08,26,3.30
2004,02,09,08,27,3.30
2004,02,09,08,28,3.30
2004,02,09,08,29,3.40
2004,02,09,08,30,3.50
2004,02,09,08,31,3.60
2004,02,09,08,32,3.70
2004,02,09,08,33,3.80
2004,02,09,08,34,3.80
2004,02,09,08,35,3.80
2004,02,09,08,36,3.90
2004,02,09,08,37,3.90
2004,02,09,08,38,4.00
2004,02,09,08,39,4.00
2004,02,09,08,40,4.10
2004,02,09,08,41,4.10
2004,02,09,08,42,4.20
2004,02,09,08,43,4.20
2004,02,09,08,44,4.30
2004,02,09,08,45,4.40
2004,02,09,08,46,4.50
2004,02,09,08,47,4.50
2004,02,09,08,48,4.60
2004,02,09,08,49,4.60
2004,02,09,08,50,4.60
2004,02,09,08,51,4.60
2004,02,09,08,52,4.70
2004,02,09,08,53,4.80
2004,02,09,08,54,4.80
2004,02,09,08,55,4.70
2004,02,09,08,56,4.70
2004,02,09,08,57,4.70
2004,02,09,08,58,4.70
2004,02,09,08,59,4.60
2004,02,09,09,00,4.60
2004,02,09,09,01,4.60
2004,02,09,09,02,4.60
2004,02,09,09,03,4.60
2004,02,09,09,04,4.70
2004,02,09,09,05,4.80
2004,02,09,09,06,4.80
2004,02,09,09,07,4.80
2004,02,09,09,08,4.90
2004,02,09,09,09,5.00
2004,02,09,09,10,5.00
2004,02,09,09,11,5.10
2004,02,09,09,12,5.10
2004,02,09,09,13,5.10
2004,02,09,09,14,5.10
2004,02,09,09,15,5.10
2004,02,09,09,16,5.00
2004,02,09,09,17,4.90
2004,02,09,09,18,4.90
2004,02,09,09,19,4.90
2004,02,09,09,20,4.90
2004,02,09,09,21,4.90
2004,02,09,09,22,5.00
2004,02,09,09,23,5.10
2004,02,09,09,24,5.10
2004,02,09,09,25,5.10
2004,02,09,09,26,5.10
2004,02,09,09,27,5.10
2004,02,09,09,28,5.10
2004,02,09,09,29,5.10
2004,02,09,09,30,5.10
2004,02,09,09,31,5.10
2004,02,09,09,32,5.10
2004,02,09,09,33,5.10
2004,02,09,09,34,5.10
2004,02,09,09,35,5.10
2004,02,09,09,36,5.10
2004,02,09,09,37,5.10
2004,02,09,09,38,5.10
2004,02,09,09,39,5.10
2004,02,09,09,40,5.10
2004,02,09,09,41,5.10
2004,02,09,09,42,5.10
2004,02,09,09,43,5.10
2004,02,09,09,44,5.10
2004,02,09,09,45,5.10
2004,02,09,09,46,5.10
2004,02,09,09,47,5.10
2004,02,09,09,48,5.10
2004,02,09,09,49,5.10
2004,02,09,09,50,5.20
2004,02,09,09,51,5.20
2004,02,09,09,52,5.30
2004,02,09,09,53,5.40
2004,02,09,09,54,5.40
2004,02,09,09,55,5.40
2004,02,09,09,56,5.30
2004,02,09,09,57,5.30
2004,02,09,09,58,5.30
2004,02,09,09,59,5.30
2004,02,09,10,00,5.40
2004,02,09,10,01,5.40
2004,02,09,10,02,5.50
2004,02,09,10,03,5.50
2004,02,09,10,04,5.50
2004,02,09,10,05,5.50
2004,02,09,10,06,5.60
2004,02,09,10,07,5.60
2004,02,09,10,08,5.60
2004,02,09,10,09,5.60
2004,02,09,10,10,5.70
2004,02,09,10,11,5.70
2004,02,09,10,12,5.60
2004,02,09,10,13,5.70
2004,02,09,10,14,5.80
2004,02,09,10,15,5.90
2004,02,09,10,16,6.00
2004,02,09,10,17,6.00
2004,02,09,10,18,6.10
2004,02,09,10,19,6.10
2004,02,09,10,20,6.10
2004,02,09,10,21,6.20
2004,02,09,10,22,6.20
2004,02,09,10,23,6.20
2004,02,09,10,24,6.10
2004,02,09,10,25,6.00
2004,02,09,10,26,5.80
2004,02,09,10,27,5.60
2004,02,09,10,28,5.50
2004,02,09,10,29,5.40
2004,02,09,10,30,5.30
2004,02,09,10,31,5.30
2004,02,09,10,32,5.30
2004,02,09,10,33,5.30
2004,02,09,10,34,5.50
2004,02,09,10,35,5.60
2004,02,09,10,36,5.70
2004,02,09,10,37,5.70
2004,02,09,10,38,5.80
2004,02,09,10,39,5.80
2004,02,09,10,40,5.80
2004,02,09,10,41,5.80
2004,02,09,10,42,5.90
2004,02,09,10,43,5.90
2004,02,09,10,44,6.00
2004,02,09,10,45,6.00
2004,02,09,10,46,6.10
2004,02,09,10,47,6.00
2004,02,09,10,48,6.10
2004,02,09,10,49,6.00
2004,02,09,10,50,6.10
2004,02,09,10,51,6.10
2004,02,09,10,52,6.10
2004,02,09,10,53,6.10
2004,02,09,10,54,6.10
2004,02,09,10,55,6.20
2004,02,09,10,56,6.10
2004,02,09,10,57,6.00
2004,02,09,10,58,5.90
2004,02,09,10,59,5.90
2004,02,09,11,00,5.90
2004,02,09,11,01,5.80
2004,02,09,11,02,5.90
2004,02,09,11,03,5.90
2004,02,09,11,04,6.00
2004,02,09,11,05,6.00
2004,02,09,11,06,6.00
2004,02,09,11,07,6.00
2004,02,09,11,08,6.00
2004,02,09,11,09,5.90
2004,02,09,11,10,5.90
2004,02,09,11,11,5.90
2004,02,09,11,12,5.90
2004,02,09,11,13,6.00
2004,02,09,11,14,6.10
2004,02,09,11,15,6.20
2004,02,09,11,16,6.30
2004,02,09,11,17,6.40
2004,02,09,11,18,6.50
2004,02,09,11,19,6.50
2004,02,09,11,20,6.40
2004,02,09,11,21,6.20
2004,02,09,11,22,6.20
2004,02,09,11,23,6.20
2004,02,09,11,24,6.20
2004,02,09,11,25,6.20
2004,02,09,11,26,6.20
2004,02,09,11,27,6.20
2004,02,09,11,28,6.30
2004,02,09,11,29,6.30
2004,02,09,11,30,6.40
2004,02,09,11,31,6.30
2004,02,09,11,32,6.20
2004,02,09,11,33,6.30
2004,02,09,11,34,6.40
2004,02,09,11,35,6.30
2004,02,09,11,36,6.30
2004,02,09,11,37,6.30
2004,02,09,11,38,6.30
2004,02,09,11,39,6.40
2004,02,09,11,40,6.30
2004,02,09,11,41,6.40
2004,02,09,11,42,6.40
2004,02,09,11,43,6.40
2004,02,09,11,44,6.50
2004,02,09,11,45,6.60
2004,02,09,11,46,6.60
2004,02,09,11,47,6.70
2004,02,09,11,48,6.70
2004,02,09,11,49,6.70
2004,02,09,11,50,6.60
2004,02,09,11,51,6.70
2004,02,09,11,52,6.80
2004,02,09,11,53,6.80
2004,02,09,11,54,6.80
2004,02,09,11,55,6.80
2004,02,09,11,56,6.80
2004,02,09,11,57,6.80
2004,02,09,11,58,6.70
2004,02,09,11,59,6.80
2004,02,09,12,00,6.80
2004,02,09,12,01,6.80
2004,02,09,12,02,6.90
2004,02,09,12,03,6.90
2004,02,09,12,04,6.90
2004,02,09,12,05,7.00
2004,02,09,12,06,7.00
2004,02,09,12,07,7.10
2004,02,09,12,08,7.10
2004,02,09,12,09,7.20
2004,02,09,12,10,7.30
2004,02,09,12,11,7.30
2004,02,09,12,12,7.30
2004,02,09,12,13,7.30
2004,02,09,12,14,7.30
2004,02,09,12,15,7.30
2004,02,09,12,16,7.30
2004,02,09,12,17,7.30
2004,02,09,12,18,7.30
2004,02,09,12,19,7.30
2004,02,09,12,20,7.20
2004,02,09,12,21,7.20
2004,02,09,12,22,7.20
2004,02,09,12,23,7.20
2004,02,09,12,24,7.20
2004,02,09,12,25,7.20
2004,02,09,12,26,7.20
2004,02,09,12,27,7.20
2004,02,09,12,28,7.30
2004,02,09,12,29,7.30
2004,02,09,12,30,7.20
2004,02,09,12,31,7.20
2004,02,09,12,32,7.20
2004,02,09,12,33,7.20
2004,02,09,12,34,7.20
2004,02,09,12,35,7.20
2004,02,09,12,36,7.20
2004,02,09,12,37,7.30
2004,02,09,12,38,7.30
2004,02,09,12,39,7.30
2004,02,09,12,40,7.30
2004,02,09,12,41,7.30
2004,02,09,12,42,7.20
2004,02,09,12,43,7.20
2004,02,09,12,44,7.20
2004,02,09,12,45,7.20
2004,02,09,12,46,7.20
2004,02,09,12,47,7.20
2004,02,09,12,48,7.20
2004,02,09,12,49,7.20
2004,02,09,12,50,7.20
2004,02,09,12,51,7.20
2004,02,09,12,52,7.30
2004,02,09,12,53,7.30
2004,02,09,12,54,7.30
2004,02,09,12,55,7.30
2004,02,09,12,56,7.20
2004,02,09,12,57,7.20
2004,02,09,12,58,7.20
2004,02,09,12,59,7.20
2004,02,09,13,00,7.20
2004,02,09,13,01,7.20
2004,02,09,13,02,7.20
2004,02,09,13,03,7.20
2004,02,09,13,04,7.20
2004,02,09,13,05,7.30
2004,02,09,13,06,7.40
2004,02,09,13,07,7.60
2004,02,09,13,08,7.60
2004,02,09,13,09,7.60
2004,02,09,13,10,7.50
2004,02,09,13,11,7.40
2004,02,09,13,12,7.40
2004,02,09,13,13,7.40
2004,02,09,13,14,7.50
2004,02,09,13,15,7.60
2004,02,09,13,16,7.70
2004,02,09,13,17,7.70
2004,02,09,13,18,7.70
2004,02,09,13,19,7.60
2004,02,09,13,20,7.50
2004,02,09,13,21,7.50
2004,02,09,13,22,7.40
2004,02,09,13,23,7.40
2004,02,09,13,24,7.40
2004,02,09,13,25,7.30
2004,02,09,13,26,7.40
2004,02,09,13,27,7.40
2004,02,09,13,28,7.40
2004,02,09,13,29,7.40
2004,02,09,13,30,7.40
2004,02,09,13,31,7.50
2004,02,09,13,32,7.50
2004,02,09,13,33,7.50
2004,02,09,13,34,7.40
2004,02,09,13,35,7.30
2004,02,09,13,36,7.10
2004,02,09,13,37,7.00
2004,02,09,13,38,7.00
2004,02,09,13,39,6.90
2004,02,09,13,40,6.90
2004,02,09,13,41,6.90
2004,02,09,13,42,7.00
2004,02,09,13,43,7.00
2004,02,09,13,44,6.90
2004,02,09,13,45,6.90
2004,02,09,13,46,6.90
2004,02,09,13,47,6.90
2004,02,09,13,48,7.00
2004,02,09,13,49,7.00
2004,02,09,13,50,6.90
2004,02,09,13,51,6.80
2004,02,09,13,52,6.70
2004,02,09,13,53,6.60
2004,02,09,13,54,6.60
2004,02,09,13,55,6.70
2004,02,09,13,56,6.70
2004,02,09,13,57,6.80
2004,02,09,13,58,6.70
2004,02,09,13,59,6.70
2004,02,09,14,00,6.70
2004,02,09,14,01,6.60
2004,02,09,14,02,6.60
2004,02,09,14,03,6.70
2004,02,09,14,04,6.70
2004,02,09,14,05,6.70
2004,02,09,14,06,6.70
2004,02,09,14,07,6.70
2004,02,09,14,08,6.60
2004,02,09,14,09,6.60
2004,02,09,14,10,6.60
2004,02,09,14,11,6.60
2004,02,09,14,12,6.60
2004,02,09,14,13,6.50
2004,02,09,14,14,6.40
2004,02,09,14,15,6.30
2004,02,09,14,16,6.20
2004,02,09,14,17,6.20
2004,02,09,14,18,6.20
2004,02,09,14,19,6.20
2004,02,09,14,20,6.20
2004,02,09,14,21,6.20
2004,02,09,14,22,6.30
2004,02,09,14,23,6.40
2004,02,09,14,24,6.40
2004,02,09,14,25,6.40
2004,02,09,14,26,6.40
2004,02,09,14,27,6.40
2004,02,09,14,28,6.40
2004,02,09,14,29,6.40
2004,02,09,14,30,6.40
2004,02,09,14,31,6.40
2004,02,09,14,32,6.40
2004,02,09,14,33,6.40
2004,02,09,14,34,6.40
2004,02,09,14,35,6.40
2004,02,09,14,36,6.40
2004,02,09,14,37,6.40
2004,02,09,14,38,6.40
2004,02,09,14,39,6.40
2004,02,09,14,40,6.40
2004,02,09,14,41,6.40
2004,02,09,14,42,6.40
2004,02,09,14,43,6.40
2004,02,09,14,44,6.30
2004,02,09,14,45,6.40
2004,02,09,14,46,6.40
2004,02,09,14,47,6.40
2004,02,09,14,48,6.40
2004,02,09,14,49,6.40
2004,02,09,14,50,6.50
2004,02,09,14,51,6.50
2004,02,09,14,52,6.50
2004,02,09,14,53,6.50
2004,02,09,14,54,6.50
2004,02,09,14,55,6.40
2004,02,09,14,56,6.40
2004,02,09,14,57,6.40
2004,02,09,14,58,6.50
2004,02,09,14,59,6.60
2004,02,09,15,00,6.70
2004,02,09,15,01,6.70
2004,02,09,15,02,6.70
2004,02,09,15,03,6.60
2004,02,09,15,04,6.60
2004,02,09,15,05,6.60
2004,02,09,15,06,6.60
2004,02,09,15,07,6.60
2004,02,09,15,08,6.60
2004,02,09,15,09,6.60
2004,02,09,15,10,6.50
2004,02,09,15,11,6.40
2004,02,09,15,12,6.50
2004,02,09,15,13,6.60
2004,02,09,15,14,6.40
2004,02,09,15,15,6.40
2004,02,09,15,16,6.40
2004,02,09,15,17,6.40
2004,02,09,15,18,6.40
2004,02,09,15,19,6.40
2004,02,09,15,20,6.30
2004,02,09,15,21,6.30
2004,02,09,15,22,6.30
2004,02,09,15,23,6.30
2004,02,09,15,24,6.30
2004,02,09,15,25,6.40
2004,02,09,15,26,6.30
2004,02,09,15,27,6.30
2004,02,09,15,28,6.40
2004,02,09,15,29,6.40
2004,02,09,15,30,6.50
2004,02,09,15,31,6.50
2004,02,09,15,32,6.40
2004,02,09,15,33,6.40
2004,02,09,15,34,6.40
2004,02,09,15,35,6.30
2004,02,09,15,36,6.30
2004,02,09,15,37,6.30
2004,02,09,15,38,6.20
2004,02,09,15,39,6.20
2004,02,09,15,40,6.20
2004,02,09,15,41,6.20
2004,02,09,15,42,6.30
2004,02,09,15,43,6.30
2004,02,09,15,44,6.30
2004,02,09,15,45,6.40
2004,02,09,15,46,6.50
2004,02,09,15,47,6.60
2004,02,09,15,48,6.60
2004,02,09,15,49,6.60
2004,02,09,15,50,6.60
2004,02,09,15,51,6.60
2004,02,09,15,52,6.60
2004,02,09,15,53,6.50
2004,02,09,15,54,6.40
2004,02,09,15,55,6.30
2004,02,09,15,56,6.30
2004,02,09,15,57,6.30
2004,02,09,15,58,6.30
2004,02,09,15,59,6.30
2004,02,09,16,00,6.30
2004,02,09,16,01,6.40
2004,02,09,16,02,6.40
2004,02,09,16,03,6.40
2004,02,09,16,04,6.50
2004,02,09,16,05,6.50
2004,02,09,16,06,6.50
2004,02,09,16,07,6.40
2004,02,09,16,08,6.40
2004,02,09,16,09,6.40
2004,02,09,16,10,6.40
2004,02,09,16,11,6.50
2004,02,09,16,12,6.60
2004,02,09,16,13,6.60
2004,02,09,16,14,6.60
2004,02,09,16,15,6.60
2004,02,09,16,16,6.50
2004,02,09,16,17,6.40
2004,02,09,16,18,6.50
2004,02,09,16,19,6.50
2004,02,09,16,20,6.60
2004,02,09,16,21,6.60
2004,02,09,16,22,6.60
2004,02,09,16,23,6.50
2004,02,09,16,24,6.40
2004,02,09,16,25,6.50
2004,02,09,16,26,6.60
2004,02,09,16,27,6.60
2004,02,09,16,28,6.70
2004,02,09,16,29,6.70
2004,02,09,16,30,6.70
2004,02,09,16,31,6.70
2004,02,09,16,32,6.60
2004,02,09,16,33,6.60
2004,02,09,16,34,6.60
2004,02,09,16,35,6.60
2004,02,09,16,36,6.60
2004,02,09,16,37,6.60
2004,02,09,16,38,6.60
2004,02,09,16,39,6.60
2004,02,09,16,40,6.50
2004,02,09,16,41,6.40
2004,02,09,16,42,6.40
2004,02,09,16,43,6.40
2004,02,09,16,44,6.40
2004,02,09,16,45,6.40
2004,02,09,16,46,6.40
2004,02,09,16,47,6.40
2004,02,09,16,48,6.40
2004,02,09,16,49,6.30
2004,02,09,16,50,6.30
2004,02,09,16,51,6.40
2004,02,09,16,52,6.40
2004,02,09,16,53,6.40
2004,02,09,16,54,6.40
2004,02,09,16,55,6.40
2004,02,09,16,56,6.40
2004,02,09,16,57,6.40
2004,02,09,16,58,6.40
2004,02,09,16,59,6.40
2004,02,09,17,00,6.40
2004,02,09,17,01,6.40
2004,02,09,17,02,6.40
2004,02,09,17,03,6.40
2004,02,09,17,04,6.50
2004,02,09,17,05,6.50
2004,02,09,17,06,6.60
2004,02,09,17,07,6.50
2004,02,09,17,08,6.60
2004,02,09,17,09,6.60
2004,02,09,17,10,6.50
2004,02,09,17,11,6.50
2004,02,09,17,12,6.40
2004,02,09,17,13,6.50
2004,02,09,17,14,6.60
2004,02,09,17,15,6.50
2004,02,09,17,16,6.40
2004,02,09,17,17,6.40
2004,02,09,17,18,6.40
2004,02,09,17,19,6.40
2004,02,09,17,20,6.40
2004,02,09,17,21,6.40
2004,02,09,17,22,6.40
2004,02,09,17,23,6.40
2004,02,09,17,24,6.40
2004,02,09,17,25,6.40
2004,02,09,17,26,6.40
2004,02,09,17,27,6.40
2004,02,09,17,28,6.40
2004,02,09,17,29,6.40
2004,02,09,17,30,6.60
2004,02,09,17,31,6.60
2004,02,09,17,32,6.60
2004,02,09,17,33,6.60
2004,02,09,17,34,6.70
2004,02,09,17,35,6.80
2004,02,09,17,36,6.80
2004,02,09,17,37,7.00
2004,02,09,17,38,7.00
2004,02,09,17,39,7.10
2004,02,09,17,40,7.10
2004,02,09,17,41,7.20
2004,02,09,17,42,7.20
2004,02,09,17,43,7.30
2004,02,09,17,44,7.30
2004,02,09,17,45,7.30
2004,02,09,17,46,7.20
2004,02,09,17,47,7.20
2004,02,09,17,48,7.10
2004,02,09,17,49,7.20
2004,02,09,17,50,7.20
2004,02,09,17,51,7.30
2004,02,09,17,52,7.30
2004,02,09,17,53,7.30
2004,02,09,17,54,7.30
2004,02,09,17,55,7.30
2004,02,09,17,56,7.30
2004,02,09,17,57,7.30
2004,02,09,17,58,7.30
2004,02,09,17,59,7.40
2004,02,09,18,00,7.30
2004,02,09,18,01,7.30
2004,02,09,18,02,7.30
2004,02,09,18,03,7.20
2004,02,09,18,04,7.20
2004,02,09,18,05,7.10
2004,02,09,18,06,7.00